Weather observations for the past three days for
Teller
Metric (Imperial)
Date Time (akdt) Wind (kph) Vis. (km) Weather Sky Cond. Temperature (ºC) Relative Humidity Wind Chill (°C) Heat Index (°C) Pressure Precipitation (cm)
Air Dwpt 6 hour altimeter (cm) sea level (mb) 1 hr 3 hr 6 hr
Max. Min.
16 02:56 SW 7 16.09 Fair CLR 2.8 1.1 89% 1 76.86 1025.0
16 01:56 Calm 16.09 Fair CLR 2.8 1.7 93% 76.86 1025.2
16 00:56 W 9 16.09 Fair CLR 3.9 1.7 86% 2 76.89 1025.3
15 23:56 SW 7 16.09 Fair CLR 5 2.2 82% 4 76.86 1025.3
15 22:56 SW 11 16.09 Fair CLR 5.6 2.2 79% 3 76.89 1025.3
15 20:56 W 13 16.09 Fair CLR 5.6 2.2 79% 3 76.89 1025.6
15 19:56 SW 19 16.09 Fair CLR 6.7 2.8 76% 4 76.89 1025.5
15 18:56 SW 19 16.09 Fair CLR 7.2 2.8 74% 4 76.91 1025.7
15 17:56 W 17 16.09 Fair CLR 6.7 3.3 79% 4 76.94 1026.0
15 16:56 W 22 16.09 Fair CLR 5.6 2.8 82% 2 76.94 1026.2
15 15:56 W 20 16.09 Fair CLR 5.6 2.2 6.1 3.3 79% 2 76.94 1026.3
15 14:56 NW 19 16.09 Fair CLR 5 2.2 82% 2 76.94 1026.2
15 13:56 NW 17 16.09 Mostly Cloudy BKN004 BKN009 4.4 2.8 89% 1 76.94 1026.2
15 12:56 NW 15 16.09 Overcast OVC004 3.9 2.2 89% 1 76.96 1026.5
15 11:56 W 15 16.09 Overcast OVC008 3.9 2.2 89% 1 76.96 1026.4
15 10:56 Vrbl 7 16.09 Overcast OVC006 4.4 2.8 89% 3 76.96 1026.4
15 09:56 Calm 16.09 Overcast OVC004 3.3 2.2 3.9 2.8 93% 76.96 1026.5
15 08:56 SW 11 16.09 Overcast OVC004 3.3 2.2 93% 1 76.96 1026.6
15 07:56 SW 9 16.09 Overcast OVC004 2.8 2.2 96% 1 76.99 1026.7
15 06:56 W 13 16.09 Overcast OVC004 2.8 2.2 96% -0 76.99 1026.7
15 05:56 W 13 16.09 Overcast OVC004 3.3 2.2 93% 0 76.99 1026.8
15 04:56 SW 7 16.09 Overcast OVC006 3.3 2.2 93% 2 76.99 1026.6
15 03:56 SW 7 16.09 Overcast OVC006 2.8 2.2 3.3 2.8 96% 1 76.96 1026.6
15 02:56 SW 11 16.09 Overcast OVC006 2.8 2.2 96% 0 76.96 1026.6
15 01:56 SW 17 16.09 Overcast OVC008 3.3 1.7 89% -0 76.99 1026.7
15 00:56 SW 11 16.09 Overcast OVC008 3.3 1.7 89% 1 76.99 1026.7
14 23:56 SW 17 16.09 Overcast OVC008 3.3 1.7 89% -0 76.99 1026.7
14 22:56 SW 17 16.09 Overcast OVC006 2.8 1.1 89% -1 76.96 1026.4
14 21:56 SW 30 16.09 Overcast OVC008 2.8 1.1 5.6 2.8 89% -2 76.96 1026.4
14 20:56 SW 33 16.09 Mostly Cloudy and Breezy BKN008 3.3 1.1 86% -2 76.91 1025.9
14 19:56 SW 39 16.09 A Few Clouds and Breezy FEW013 5 1.1 76% -0 76.91 1025.8
14 18:56 SW 30 16.09 Overcast OVC013 5 1.7 79% 0 76.91 1025.9
14 17:56 SW 24 16.09 Overcast OVC013 5.6 1.1 73% 2 76.94 1026.2
14 16:56 SW 28 16.09 Overcast OVC013 4.4 1.1 79% -0 76.96 1026.3
14 15:56 SW 26 16.09 Overcast OVC013 5 1.7 5 2.8 79% 1 76.94 1026.2
14 14:56 SW 26 16.09 Overcast OVC011 3.9 1.1 82% -1 76.94 1026.2
14 13:56 SW 28 16.09 Overcast OVC011 3.3 1.1 86% -2 76.94 1026.0
14 12:56 SW 26 16.09 Overcast OVC009 3.3 1.7 89% -1 76.91 1025.9
14 11:56 SW 24 6.44 Unknown Precip Fog/Mist OVC003 2.8 2.2 96% -2 76.89 1025.6
14 10:56 SW 20 11.27 Overcast OVC003 2.8 2.8 100% -1 76.89 1025.4
14 09:56 SW 24 4.02 Unknown Precip Fog/Mist OVC003 2.8 2.2 3.3 2.8 96% -2 76.86 1025.3
14 08:56 SW 20 0.40 Unknown Precip Fog OVC003 2.8 2.8 100% -1 76.84 1024.8
14 07:56 SW 19 3.22 Light Rain Fog/Mist OVC005 3.3 2.8 97% -1 76.81 1024.5
14 06:56 S 17 8.05 Unknown Precip Fog/Mist OVC008 2.8 2.2 96% -1 76.81 1024.4
14 05:56 S 28 14.48 Overcast OVC014 2.8 2.2 96% -2 76.76 1023.9
14 04:56 S 20 16.09 Overcast OVC006 2.8 2.2 96% -1 76.76 1023.8
14 03:56 S 22 16.09 Overcast FEW006 BKN010 OVC014 3.3 2.2 5 3.3 93% -1 76.76 1023.6
14 02:56 S 22 16.09 Overcast OVC006 3.3 2.8 97% -1 76.73 1023.5
14 01:56 S 17 8.05 Fog/Mist OVC002 3.3 3.3 100% -0 76.73 1023.4
14 00:56 S 28 9.66 Fog/Mist BKN004 OVC024 3.3 3.3 100% -2 76.71 1023.0
13 23:56 S 31 16.09 Overcast BKN011 OVC024 5 3.3 89% 0 76.68 1022.8
13 22:56 S 31 16.09 Overcast OVC034 5 3.3 89% 0 76.63 1022.2
13 21:56 S 31 G 39 16.09 Overcast BKN011 OVC028 5.6 3.3 8.9 3.3 85% 1 76.66 1022.4
13 20:56 S 28 16.09 Overcast FEW014 BKN031 OVC050 6.7 3.3 79% 3 76.66 1022.5
13 19:56 S 31 16.09 Overcast OVC027 7.2 3.9 80% 3 76.68 1022.8
13 18:56 S 30 G 35 16.09 Overcast BKN020 OVC028 8.3 3.3 71% 5 76.68 1022.8
13 17:56 SW 26 16.09 Overcast OVC044 6.7 2.8 76% 3 76.71 1022.9
13 16:56 N 7 16.09 Overcast SCT015 OVC070 3.9 2.8 93% 2 76.73 1023.3
13 15:56 NW 11 16.09 Overcast SCT001 BKN025 OVC110 3.3 2.2 7.2 1.7 93% 1 76.73 1023.4
13 14:56 W 15 16.09 Overcast SCT003 BKN009 OVC085 3.3 2.2 93% 0 76.73 1023.4
13 13:56 W 15 16.09 Overcast OVC090 6.1 2.8 80% 3 76.71 1023.0
13 12:56 NW 13 16.09 Mostly Cloudy BKN085 4.4 2.2 86% 2 76.71 1023.0
13 11:56 N 11 16.09 Overcast SCT002 OVC090 3.9 2.8 93% 1 76.71 1023.1
13 10:56 NE 13 0.24 Fog OVC002 2.2 1.7 97% -1 76.71 1023.2
13 09:56 Calm 0.80 Fog OVC002 1.7 1.7 2.8 0 100% 76.71 1023.1
13 08:56 Calm 0.40 Fog OVC002 1.7 1.1 96% 76.71 1023.0
13 07:56 Calm 0.24 Fog OVC002 1.1 1.1 100% 76.71 1022.9
13 06:56 Calm 0.24 Fog OVC002 0.6 0 96% 76.68 1022.7
13 05:56 SW 9 0.24 Fog OVC002 0.6 0.6 100% -2 76.66 1022.5
13 04:56 W 7 0.24 Fog OVC002 0.6 0 96% -1 76.66 1022.3
13 03:56 W 7 0.24 Fog OVC002 0.6 0 3.3 0.6 96% -1 76.63 1022.1
Date Time (akdt) Wind (kph) Vis. (km) Weather Sky Cond. Air Dwpt Max. Min. Relative Humidity Wind Chill (°C) Heat Index (°C) altimeter (cm) sea level (mb) 1 hr 3 hr 6 hr
6 hour
Temperature (ºC) Pressure Precipitation (cm)